Location: Seagrape Drive
(25.8948°N, 81.3265°W)
Time: 19:23:05
(UTC-04:00)

OTV 5 (USA 277) - Visible Passes

Search period start: 26 May 2018 00:00
Search period end: 05 June 2018 00:00
Orbit: 308 x 326 km, 54.5° (Epoch: 06 May)

Date Brightness Start Highest point End Pass type
(mag) Time Alt. Az. Time Alt. Az. Time Alt. Az.
26 May ? 05:43:20 20° WSW 05:44:55 47° NW 05:47:35 10° NNE visible
27 May ? 04:26:39 12° E 04:26:39 12° E 04:27:05 10° E visible
27 May ? 05:57:54 10° W 05:59:25 14° NW 06:00:56 10° NNW visible
28 May ? 04:40:45 28° NE 04:40:45 28° NE 04:42:13 10° NE visible
29 May ? 04:54:46 20° NNW 04:54:46 20° NNW 04:56:13 10° N visible
